Date String (YYYY-MM-DD hh:mm:ss) UTC,Instrument flags,Ambient pressure (hPa),Sample flow (lpm),Bypass flow (lpm),Sample temperature (°C),Ambient temperature (°C),ASC tube jacket temperature (°C),LED temperature (°C),Box temperature (°C),Sample RH (%),Span deviation,Mass concentration (μg/m³),Mass concentration (μg/m³),Mass concentration (μg/m³)
DateTimeUTC,F1_M11,P_M11,Q1_M11,Q2_M11,T1_M11,T2_M11,T3_M11,T4_M11,T5_M11,U1_M11,ZSPAN_M11,X0_M11,X2_M11,X1_M11
2022-05-28 12:00:00,,0819.0,5.00,0.00,30.2,29.0,00.0,39.1,32.0,11.6,0000.0,0010.75,0005.42,0004.46
2022-05-28 12:01:00,,0819.0,5.00,0.00,30.2,29.0,00.0,39.1,32.0,11.4,0000.0,0010.65,0005.40,0004.46
2022-05-28 12:02:00,,0819.0,4.99,0.00,30.2,29.0,00.0,39.1,32.0,11.4,0000.0,0011.22,0005.38,0004.47
2022-05-28 12:03:00,,0819.0,5.00,0.00,30.2,29.0,00.0,39.1,32.0,11.3,0000.0,0011.55,0005.38,0004.48
2022-05-28 12:04:00,,0819.0,5.01,0.00,30.2,29.0,00.0,39.1,32.0,11.4,0000.0,0011.61,0005.40,0004.49
2022-05-28 12:05:00,,0819.0,5.01,0.00,30.2,29.0,00.0,39.1,32.0,11.2,0000.0,0011.64,0005.41,0004.50
2022-05-28 12:06:00,,0819.0,5.00,0.00,30.2,29.0,00.0,39.1,32.0,11.2,0000.0,0012.02,0005.45,0004.52
2022-05-28 12:07:00,,0819.0,4.99,0.00,30.2,29.0,00.0,39.1,32.0,11.2,0000.0,0013.04,0005.46,0004.53
2022-05-28 12:08:00,,0818.9,5.00,0.00,30.2,29.0,00.0,39.1,32.0,11.2,0000.0,0012.76,0005.47,0004.54
2022-05-28 12:09:00,,0818.9,5.01,0.00,30.2,29.0,00.0,39.1,32.0,11.0,0000.0,0013.11,0005.44,0004.55
2022-05-28 12:10:00,,0819.0,5.00,0.00,30.2,29.0,00.0,39.1,32.0,11.3,0000.0,0013.00,0005.48,0004.56
2022-05-28 12:11:00,,0819.0,5.00,0.00,30.2,29.0,00.0,39.1,32.0,11.0,0000.0,0013.19,0005.51,0004.56
2022-05-28 12:12:00,,0818.9,5.00,0.00,30.2,29.0,00.0,39.1,32.0,10.9,0000.0,0013.96,0005.58,0004.57
2022-05-28 12:13:00,,0818.9,5.01,0.00,30.2,29.0,00.0,39.1,32.0,10.7,0000.0,0013.66,0005.62,0004.57
2022-05-28 12:14:00,,0819.0,4.99,0.00,30.2,29.0,00.0,39.1,32.0,10.9,0000.0,0013.34,0005.60,0004.58
2022-05-28 12:15:00,,0819.0,4.99,0.00,30.2,29.0,00.0,39.1,32.0,10.8,0000.0,0013.70,0005.58,0004.58
2022-05-28 12:16:00,,0818.9,4.99,0.00,30.2,29.0,00.0,39.1,32.0,10.6,0000.0,0013.83,0005.60,0004.60
2022-05-28 12:17:00,,0818.9,5.00,0.00,30.2,29.0,00.0,39.1,32.0,10.3,0000.0,0013.52,0005.55,0004.61
2022-05-28 12:18:00,,0819.0,5.00,0.00,30.2,29.0,00.0,39.1,32.0,10.2,0000.0,0012.32,0005.56,0004.64
2022-05-28 12:19:00,,0819.0,5.01,0.00,30.2,29.0,00.0,39.1,32.0,10.3,0000.0,0012.92,0005.61,0004.66
2022-05-28 12:20:00,,0819.0,5.00,0.00,30.2,29.0,00.0,39.1,32.0,10.3,0000.0,0013.12,0005.60,0004.67
2022-05-28 12:21:00,,0819.0,4.99,0.00,30.2,29.0,00.0,39.1,32.0,10.4,0000.0,0013.00,0005.58,0004.69
2022-05-28 12:22:00,,0819.0,5.00,0.00,30.2,29.0,00.0,39.1,32.0,10.4,0000.0,0012.79,0005.57,0004.72
2022-05-28 12:23:00,,0819.0,5.00,0.00,30.2,29.0,00.0,39.1,32.0,10.6,0000.0,0012.08,0005.54,0004.74
2022-05-28 12:24:00,,0819.1,4.99,0.00,30.2,29.0,00.0,39.1,32.0,11.8,0000.0,0011.76,0005.54,0004.77
2022-05-28 12:25:00,,0819.0,5.01,0.00,30.2,29.0,00.0,39.1,32.0,11.5,0000.0,0011.89,0005.61,0004.78
2022-05-28 12:26:00,,0819.0,5.00,0.00,30.2,29.0,00.0,39.1,31.9,10.9,0000.0,0011.52,0005.63,0004.79
2022-05-28 12:27:00,,0819.0,4.99,0.00,30.1,29.0,00.0,39.1,31.9,10.9,0000.0,0011.28,0005.61,0004.79
2022-05-28 12:28:00,,0819.0,5.00,0.00,30.1,29.0,00.0,39.1,31.9,11.1,0000.0,0011.44,0005.65,0004.81
2022-05-28 12:29:00,,0818.9,5.01,0.00,30.1,29.0,00.0,39.1,31.9,11.1,0000.0,0011.81,0005.66,0004.81
2022-05-28 12:30:00,,0818.9,4.99,0.00,30.1,29.0,00.0,39.1,31.9,11.3,0000.0,0011.03,0005.61,0004.80
2022-05-28 12:31:00,,0818.9,5.01,0.00,30.1,29.0,00.0,39.1,31.9,11.2,0000.0,0010.53,0005.64,0004.81
2022-05-28 12:32:00,,0818.9,5.01,0.00,30.1,29.0,00.0,39.1,31.9,10.8,0000.0,0010.66,0005.68,0004.82
2022-05-28 12:33:00,,0819.0,5.00,0.00,30.1,29.0,00.0,39.1,31.9,11.1,0000.0,0010.95,0005.68,0004.83
2022-05-28 12:34:00,,0819.0,4.99,0.00,30.1,29.0,00.0,39.1,31.9,11.0,0000.0,0011.11,0005.72,0004.84
2022-05-28 12:35:00,,0819.0,4.99,0.00,30.1,29.0,00.0,39.1,31.9,11.0,0000.0,0011.02,0005.72,0004.86
2022-05-28 12:36:00,,0819.0,5.00,0.00,30.1,29.0,00.0,39.1,31.9,11.0,0000.0,0010.87,0005.70,0004.87
2022-05-28 12:37:00,,0818.9,5.01,0.00,30.1,29.0,00.0,39.1,31.9,10.7,0000.0,0010.92,0005.72,0004.88
2022-05-28 12:38:00,,0818.9,4.99,0.00,30.1,29.0,00.0,39.1,31.9,10.9,0000.0,0011.02,0005.74,0004.89
2022-05-28 12:39:00,,0818.9,5.00,0.00,30.1,29.0,00.0,39.1,31.9,11.3,0000.0,0011.00,0005.71,0004.87
2022-05-28 12:40:00,,0819.0,5.00,0.00,30.1,29.0,00.0,39.1,31.9,11.7,0000.0,0011.14,0005.69,0004.88
2022-05-28 12:41:00,,0819.0,5.00,0.00,30.1,29.0,00.0,39.0,31.9,11.4,0000.0,0011.73,0005.74,0004.90
2022-05-28 12:42:00,,0819.0,4.99,0.00,30.1,29.0,00.0,39.0,31.9,11.2,0000.0,0011.59,0005.72,0004.89
2022-05-28 12:43:00,,0819.0,5.00,0.00,30.1,29.0,00.0,39.0,31.9,11.2,0000.0,0011.16,0005.68,0004.87
2022-05-28 12:44:00,,0819.0,5.00,0.00,30.1,29.0,00.0,39.0,31.9,11.4,0000.0,0010.87,0005.68,0004.84
2022-05-28 12:45:00,,0818.9,4.99,0.00,30.1,29.0,00.0,39.0,31.9,11.5,0000.0,0010.97,0005.63,0004.78
2022-05-28 12:46:00,,0818.9,5.01,0.00,30.1,29.0,00.0,39.0,31.9,11.5,0000.0,0011.46,0005.57,0004.72
2022-05-28 12:47:00,,0819.0,5.00,0.00,30.1,29.0,00.0,39.0,31.9,11.5,0000.0,0011.46,0005.53,0004.68
2022-05-28 12:48:00,,0819.0,5.00,0.00,30.1,29.0,00.0,39.1,31.9,11.6,0000.0,0011.37,0005.45,0004.63
2022-05-28 12:49:00,,0819.0,5.00,0.00,30.1,29.0,00.0,39.0,31.9,11.5,0000.0,0011.35,0005.38,0004.57
2022-05-28 12:50:00,,0819.0,5.01,0.00,30.1,29.0,00.0,39.0,31.9,11.5,0000.0,0011.93,0005.38,0004.52
2022-05-28 12:51:00,,0818.9,5.00,0.00,30.1,29.0,00.0,39.1,31.9,11.9,0000.0,0011.91,0005.34,0004.45
2022-05-28 12:52:00,,0818.9,4.99,0.00,30.1,29.0,00.0,39.1,31.9,11.9,0000.0,0012.14,0005.27,0004.37
2022-05-28 12:53:00,,0818.9,5.01,0.00,30.1,29.0,00.0,39.1,31.9,12.2,0000.0,0012.60,0005.21,0004.29
2022-05-28 12:54:00,,0818.9,5.00,0.00,30.1,29.0,00.0,39.1,31.9,12.2,0000.0,0012.61,0005.10,0004.21
2022-05-28 12:55:00,,0818.9,4.99,0.00,30.1,29.0,00.0,39.1,31.9,12.1,0000.0,0012.89,0005.02,0004.15
2022-05-28 12:56:00,,0818.9,4.99,0.00,30.1,29.0,00.0,39.1,31.9,11.8,0000.0,0013.02,0005.00,0004.14
2022-05-28 12:57:00,,0818.9,5.01,0.00,30.1,29.0,00.0,39.1,31.9,11.9,0000.0,0012.62,0005.01,0004.11
2022-05-28 12:58:00,,0819.0,5.00,0.00,30.1,29.0,00.0,39.1,31.9,11.9,0000.0,0012.88,0004.98,0004.07
2022-05-28 12:59:00,,0818.9,5.00,0.00,30.1,28.9,00.0,39.1,31.9,11.6,0000.0,0013.31,0004.99,0004.06
